Regional Weather Roundup
Issued by NWS

Home | Current Version | Previous Version | Text Only | Print | Product List | Glossary Off
Versions: 1 2 3 4 5 6 7 8 9 10 11 12 13 14 15 16 17 18 19 20 21 22 23 24 25 26 27 28 29 30 31 32 33 34 35 36 37 38 39 40 41 42 43 44 45 46 47 48 49 50

000
ASUS43 KDMX 271106
RWRIA

WEATHER ROUNDUP FOR IOWA
NATIONAL WEATHER SERVICE DES MOINES IA
600 AM CDT THU APR 27 2017

NOTE: "FAIR" INDICATES FEW OR NO CLOUDS BELOW 12,000 FEET WITH NO
SIGNIFICANT WEATHER AND/OR OBSTRUCTIONS TO VISIBILITY.

* - THESE STATIONS ARE NOT NWS STATIONS...THUS NOT UNDER NWS
QUALITY CONTROL.  THEY ALSO DO NOT REPORT WEATHER SUCH
AS PRECIPITATION OR FOG.

IAZ001>003-012>014-020>022-031>034-043>046-271200-
   NORTHWEST IOWA

CITY           SKY/WX    TMP DP  RH WIND       PRES   REMARKS
CARROLL *      CLOUDY    32  32 100 NW13      29.62F WCI  22
CHEROKEE *     CLOUDY    31  28  88 NW14      29.64R WCI  21
DENISON *      CLOUDY    34  28  80 NW10      29.66R WCI  26
LE MARS *      CLOUDY    32  28  86 NW12      29.66R WCI  23
ORANGE CITY *  CLOUDY    30  28  93 N12       29.63S WCI  21
SHELDON *      CLOUDY    30  27  86 NW15G24   29.61S WCI  19
SIOUX CITY     CLOUDY    33  28  81 NW16      29.66R WCI  23
SPENCER        CLOUDY    30  28  92 NW12      29.61R WCI  20
STORM LAKE *   CLOUDY    30  28  93 NW14G21   29.62R WCI  20
$$

IAZ055>058-069>071-079>083-090>094-271200-
   SOUTHWEST IOWA

CITY           SKY/WX    TMP DP  RH WIND       PRES   REMARKS
ATLANTIC *     CLOUDY    36  30  80 NW12      29.64F WCI  27
AUDUBON *      CLOUDY    34  28  80 NW7       29.63F WCI  28
CLARINDA *     CLOUDY    41  32  70 NW12      29.68S
COUNCIL BLFS * CLOUDY    36  30  80 NW13G20   29.66R WCI  27
CRESTON *      CLOUDY    36  30  80 NW15G22   29.63R WCI  26
HARLAN  *      CLOUDY    34  32  93 NW8G15    29.68S WCI  27
LAMONI         CLOUDY    38  31  76 W15       29.61R WCI  29
RED OAK *      CLOUDY    39  30  70 NW10      29.66S WCI  32
SHENANDOAH *   CLOUDY    41  32  70 NW8G15    29.68R
$$

IAZ047>049-059>061-072>074-084-271200-
   CENTRAL IOWA

CITY           SKY/WX    TMP DP  RH WIND       PRES   REMARKS
AMES           CLOUDY    35  30  82 NW21G29   29.58R WCI  24
ANKENY *       CLOUDY    36  32  87 NW14G20   29.60R WCI  27
BOONE *        CLOUDY    34  30  86 NW17G24   29.57S WCI  23
CHARITON *     CLOUDY    37  32  81 NW16      29.60R WCI  28
DES MOINES     DRIZZLE   37  32  82 NW14G24   29.59R WCI  28
GRINNELL*      CLOUDY    35  31  85 NW16G22   29.57R WCI  25
KNOXVILLE *    CLOUDY    37  34  87 NW15G23   29.57R WCI  28
MARSHALLTOWN   CLOUDY    35  31  85 NW20G28   29.54S WCI  24
NEWTON *       CLOUDY    36  30  80 W16       29.57R WCI  26
PELLA *        CLOUDY    37  32  82 NW12G17   29.60R WCI  29
PERRY *        CLOUDY    35  32  89 NW13G20   29.60S WCI  26
$$

IAZ004>006-015-016-023>025-035-036-271200-
   NORTH CENTRAL IOWA

CITY           SKY/WX    TMP DP  RH WIND       PRES   REMARKS
ALGONA *       CLOUDY    32  30  93 NW16      29.58S WCI  21
CLARION *      CLOUDY    32  32 100 NW16G23   29.57S WCI  21
ESTHERVILLE    CLOUDY    29  29 100 NW17      29.59R WCI  17
FORT DODGE *   CLOUDY    32  25  74 NW13      29.59F WCI  22
MASON CITY     CLOUDY    32  30  92 NW15      29.54S FOG     WCI  22
FOREST CITY *  CLOUDY    32  30  93 NW16      29.55S FOG     WCI  21
WEBSTER CITY * CLOUDY    34  28  80 NW18      29.56S WCI  23
IOWA FALLS *   CLOUDY    34  32  92 NW17      29.56S WCI  24
$$

IAZ007>011-017>019-026>030-037>042-050>054-066-271200-
   NORTHEAST IOWA

CITY           SKY/WX    TMP DP  RH WIND       PRES   REMARKS
CEDAR RAPIDS   CLOUDY    37  35  92 W18G26    29.51R WCI  27
CHARLES CITY * CLOUDY    36  32  87 NW13      29.51S WCI  27
CLINTON *      LGT RAIN  39  37  92 W17       29.45R WCI  30
DECORAH *      CLOUDY    36  34  93 NW9       29.45S WCI  29
DUBUQUE        LGT RAIN  36  35  96 NW12      29.43F WCI  28
MONTICELLO *   LGT RAIN  34  34 100 W8        29.47R WCI  27
OELWEIN *      CLOUDY    37  36  93 NW15G23   29.48F WCI  28
WATERLOO       CLOUDY    36  31  82 NW16G24   29.50F WCI  26
$$

IAZ064-065-067-068-078-271200-
   EAST CENTRAL IOWA

CITY           SKY/WX    TMP DP  RH WIND       PRES   REMARKS
DAVENPORT      LGT RAIN  38  36  92 W20G26    29.48R WCI  28
IOWA CITY      CLOUDY    39  32  76 W12       29.53R WCI  32
MT. PLEASANT * CLOUDY    39  37  93 W12G20    29.56R WCI  31
MUSCATINE *    CLOUDY    39  37  93 W12G17    29.53R WCI  32
QUAD CITIES    LGT RAIN  40  36  86 W15       29.47S WCI  32
$$

IAZ062-063-075>077-085>089-095>099-271200-
   SOUTHEAST IOWA

CITY           SKY/WX    TMP DP  RH WIND       PRES   REMARKS
BURLINGTON     CLOUDY    39  38  96 W10       29.55R WCI  32
FAIRFIELD *    CLOUDY    39  34  81 W15       29.56R WCI  31
FORT MADISON * CLOUDY    39  39 100 W12G18    29.56R WCI  32
KEOKUK *       CLOUDY    41  39  93 NW10      29.56R
OSKALOOSA *    CLOUDY    37  33  85 NW16G22   29.58R WCI  27
CENTERVILLE *  CLOUDY    37  34  87 W15G23    29.62R WCI  28
OTTUMWA        CLOUDY    38  35  89 NW14      29.58R WCI  30
WASHINGTON *   CLOUDY    39  36  87 W16       29.55R WCI  30
$$

ABBREVIATIONS USED IN REMARKS
   TC - TEMPERATURES IN CELSIUS
  WCI - WIND CHILL INDEX
   HX - HEAT INDEX
  VSB - VISIBILITY
$$




USA.gov is the U.S. government's official web portal to all federal, state and local government web resources and services.